Location: Watson Lake
(60.1170°N, 128.8000°W)
Time: 19:23:52
(UTC-07:00)

Daily predictions for brighter satellites

Satellite Brightness Start Highest point End
(mag) Time Altitude Azimuth Time Altitude Azimuth Time Altitude Azimuth
CZ-2C R/B 4.3 23:43:46 10° NE 23:48:04 22° E 23:52:17 10° SE
Spot 4 4.1 23:45:57 10° S 23:50:45 72° WSW 23:55:37 10° NNW
Meteor 1-4 Rocket 4.4 23:49:24 10° NW 23:52:27 25° W 23:55:27 10° SSW
CZ-4B R/B 3.9 23:55:50 10° E 23:57:28 13° NE 23:59:07 10° NNE
